RH
19 22 17 15 22 82 84 98 97 95 77 84 75 86 84 90 86 80 82 75 66 65 76 71 64 58 50 47 43 33 24 20 16 12 11 11 12 13 13 12 11 9 9
14 53 44 53 62 62 85 89 96 93 94 95 93 96 84 89 92 90 90 64 60 60 59 60 66 61 53 54 48 42 26 22 18 13 11 11 11 12 13 13 12 10 11
12 73 79 91 81 67 68 52 84 92 88 97 97 97 98 96 98 97 89 72 58 50 52 59 60 62 62 71 62 45 30 24 20 14 12 11 11 12 13 13 13 12 15
52 60 92 80 99 97 92 70 46 71 82 96 95 96 89 95 96 96 95 88 68 57 60 56 67 57 53 78 67 38 34 24 19 15 13 12 12 13 14 15 15 18 27
46 52 90 100 94 96 98 84 85 96 97 97 96 99 80 92 98 97 96 92 90 64 62 58 53 67 66 66 74 48 35 24 20 15 14 14 17 17 18 19 20 30 47
58 64 70 89 99 99 91 98 95 96 92 96 94 97 98 98 100 94 95 88 95 96 81 64 52 56 61 67 54 46 30 24 18 15 15 18 20 20 22 26 33 58 68
33 35 37 81 93 98 81 96 84 94 100 94 98 99 96 96 98 98 97 98 98 92 91 94 69 64 62 49 43 32 28 22 20 18 19 23 24 26 32 44 72 73 74
28 36 64 58 74 100 98 97 100 98 97 98 88 98 98 99 97 98 97 94 97 98 100 95 83 79 60 48 37 27 24 24 21 22 25 26 32 35 61 79 79 80 79
27 23 36 62 61 59 96 97 99 99 98 94 98 98 98 98 97 97 99 98 100 98 98 90 80 79 67 48 40 48 43 29 26 28 28 34 41 82 89 92 91 87 78
38 32 25 25 28 67 74 82 97 97 97 98 98 98 98 98 99 96 99 98 97 99 90 93 76 67 59 57 39 75 70 36 30 33 40 53 94 95 100 100 96 88 81
45 45 39 29 26 24 22 34 74 91 92 96 97 98 98 99 98 98 99 97 100 94 90 80 92 97 56 52 56 52 40 35 36 45 68 95 97 99 100 100 94 91 90
50 52 52 50 39 30 27 24 22 23 23 33 47 43 44 87 58 50 41 44 47 46 98 77 60 57 50 62 57 40 36 38 56 90 100 100 99 100 100 99 100 98 96
54 56 64 66 63 55 46 42 39 34 30 26 25 20 22 26 20 29 49 60 56 62 63 57 53 48 43 38 36 39 54 97 99 100 100 99 100 100 100 100 100 100 98
56 56 58 56 56 53 52 48 43 40 40 43 44 45 46 44 46 48 52 54 54 53 53 48 44 39 35 46 76 100 98 96 100 100 100 99 100 100 100 99 98 95 89
99 92 84 70 60 54 49 47 46 45 47 50 52 54 57 57 56 54 52 49 46 45 41 41 49 73 93 100 100 100 100 100 100 100 100 98 93 96 100 98 100 94 89
100 100 100 100 100 100 100 100 99 94 89 83 76 68 58 57 54 55 57 66 72 82 88 96 100 100 100 100 100 100 100 100 100 100 96 85 90 98 100 98 99 97 96
100 99 100 100 100 100 100 100 100 100 100 100 100 100 100 100 100 100 100 100 100 100 100 100 100 100 100 100 100 100 99 100 100 95 99 100 100 100 100 100 100 100 96
97 89 88 87 87 88 90 94 98 100 100 100 100 100 100 100 100 100 99 99 100 100 100 100 100 100 100 100 100 100 100 100 100 100 100 100 100 100 100 100 100 98 94
89 90 92 93 95 98 99 99 99 99 99 99 100 100 100 100 100 100 100 100 100 100 100 100 100 100 100 100 100 100 100 100 100 100 100 100 100 100 100 100 100 98 97
100 100 100 100 100 100 99 98 98 99 98 98 100 100 100 100 100 100 100 100 100 100 100 100 100 100 100 100 100 100 100 100 100 100 100 100 100 100 100 100 100 100 100
100 100 100 100 100 100 100 100 100 100 99 100 98 97 98 100 100 100 100 100 100 100 100 100 100 100 100 100 100 100 100 100 100 100 100 100 100 100 100 100 99 98 100
100 99 96 91 90 81 75 76 72 70 75 80 83 86 87 91 93 95 93 89 83 77 77 74 73 70 71 75 83 92 96 100 100 100 100 100 100 94 90 96 100 100 100
61 56 53 38 37 41 37 28 23 23 25 24 21 22 22 25 28 37 46 44 35 23 26 32 33 34 35 40 44 50 56 65 73 78 78 85 76 88 99 100 100 100 100
32 39 43 42 43 46 45 45 44 34 32 36 39 36 33 33 38 35 27 28 30 33 32 31 32 33 34 33 35 37 41 44 50 59 77 94 100 100 100 100 100 100 98
54 55 56 56 57 57 58 59 60 58 55 54 53 51 50 47 44 44 43 41 38 35 33 33 33 36 36 34 33 32 31 31 32 37 41 48 86 100 100 100 100 100 100
45 43 42 40 39 38 39 40 39 39 38 39 40 40 40 36 32 29 26 22 20 19 19 18 18 19 24 31 33 32 32 31 33 39 46 71 100 100 100 100 100 99 88
Wind_Speed
54 51 50 52 47 54 44 59 65 61 59 59 54 55 56 54 52 49 46 42 37 37 37 39 41 40 37 38 38 37 37 36 37 39 40 40 40 41 41 41 40 40 42
52 47 48 47 44 49 40 39 51 51 63 65 62 57 58 65 63 54 48 40 39 40 41 41 42 42 42 41 40 39 39 39 40 41 43 44 44 45 44 44 43 42 44
54 48 48 48 46 47 46 42 53 51 48 55 55 54 57 60 69 57 46 44 45 45 47 47 47 46 44 44 42 42 41 41 43 45 45 47 48 48 47 47 47 45 47
52 53 57 54 49 50 47 41 51 55 52 47 47 52 58 56 61 48 45 47 48 49 50 49 49 49 49 47 45 44 44 45 47 48 47 49 50 51 49 49 50 48 50
50 54 57 61 58 55 55 44 50 63 53 51 52 47 56 52 55 63 52 47 50 52 52 52 53 53 51 51 50 48 48 49 51 50 49 51 52 51 51 51 52 52 54
50 55 61 61 58 53 59 52 55 57 64 53 56 55 62 61 52 57 55 57 55 56 55 56 57 56 52 51 50 49 49 53 54 53 52 53 52 53 53 53 54 56 56
43 46 57 65 68 67 59 56 59 61 51 55 61 60 54 49 50 54 56 63 61 58 56 57 58 53 51 50 52 51 52 56 55 53 54 53 53 54 55 56 56 57 55
41 44 44 55 68 76 62 46 61 64 65 64 66 63 54 49 54 57 62 60 65 59 58 57 55 53 54 54 55 55 57 56 55 55 53 54 55 56 56 57 56 56 54
42 42 45 43 53 67 70 71 51 46 52 59 37 50 50 48 53 63 58 54 58 62 59 53 54 55 57 58 59 58 57 54 56 56 56 57 57 56 56 54 54 54 53
41 41 43 47 46 45 56 58 64 68 55 61 54 49 52 60 50 47 46 47 47 44 47 49 53 54 58 60 60 62 56 56 57 60 59 59 60 57 52 53 53 54 54
38 43 44 46 48 47 46 47 52 56 53 60 66 64 62 82 80 49 51 59 55 57 54 53 54 59 60 63 63 62 58 59 60 60 60 61 58 56 53 52 54 54 55
35 37 43 45 48 50 49 48 48 48 49 49 50 51 53 55 60 59 56 57 59 58 54 61 62 63 63 64 61 61 62 63 63 63 59 57 56 53 52 53 54 56 57
36 36 37 40 44 47 50 51 51 52 53 54 55 57 58 58 60 57 53 54 57 57 59 61 62 62 61 61 62 64 64 63 61 58 57 56 54 53 54 55 56 57 58
36 37 40 41 42 42 43 45 47 49 51 52 52 53 54 55 55 57 57 58 59 59 59 62 64 65 62 62 62 63 62 59 57 56 56 55 54 55 57 57 58 59 61
37 40 41 43 43 43 44 45 46 47 48 49 50 51 53 54 56 58 59 60 61 63 64 65 64 63 62 62 59 60 57 53 54 55 56 56 57 59 60 61 61 62 63
35 38 40 42 44 44 46 46 46 47 47 48 49 50 52 54 56 57 58 60 62 63 64 63 60 57 56 56 54 52 51 50 51 56 58 60 61 63 63 64 65 65 65
45 47 48 48 48 48 49 49 50 51 51 52 53 54 56 57 57 58 59 59 60 60 59 57 55 54 52 49 48 49 50 50 55 61 62 63 65 65 65 66 67 66 66
46 46 45 47 48 49 51 52 53 53 54 54 53 52 52 53 53 52 52 51 50 48 48 48 48 48 47 49 51 52 54 57 61 62 64 67 66 66 67 67 67 66 66
41 42 43 43 43 42 42 43 45 46 47 48 48 49 48 49 48 47 47 48 47 48 48 49 50 52 53 54 56 58 60 61 63 65 65 65 65 68 68 66 65 64 62
36 36 36 36 37 38 39 40 41 41 41 41 42 42 43 44 45 46 47 48 50 52 53 55 57 58 59 60 61 62 63 63 64 64 65 67 68 67 64 61 60 58 58
36 36 37 37 37 37 38 39 39 40 42 42 43 43 44 45 46 47 49 50 51 52 54 55 56 57 59 60 61 63 64 65 65 65 66 66 64 61 58 57 55 56 59
31 32 32 32 32 33 34 35 36 38 40 41 42 44 45 47 49 50 52 53 54 54 56 58 59 60 61 62 63 63 63 63 63 63 62 60 58 55 54 54 56 57 56
37 38 39 41 43 44 45 45 46 48 49 50 51 52 54 55 56 57 59 60 60 61 64 65 66 65 63 62 61 59 58 56 57 57 55 52 52 53 54 55 54 55 54
47 48 49 51 52 53 54 56 56 57 58 60 61 61 63 64 65 65 67 68 69 70 69 69 69 68 66 62 59 57 55 55 54 53 52 52 52 52 54 52 51 53 53
53 55 56 58 59 61 62 63 64 65 65 66 68 70 70 70 72 73 73 73 72 72 70 69 68 67 65 64 62 60 59 57 56 53 51 50 51 51 50 50 50 49 52
58 59 60 62 62 63 65 66 68 69 71 72 73 74 74 74 74 75 75 75 75 74 73 71 70 68 67 65 64 61 58 55 53 52 50 47 46 46 46 46 49 51 50
Wind_Direction
249 244 246 247 249 256 270 235 231 228 231 235 236 240 241 240 242 246 253 256 256 264 261 263 269 274 276 277 279 280 278 278 277 278 280 283 286 290 293 296 298 297 295
234 231 236 236 242 250 247 259 237 242 244 236 236 239 243 246 243 248 248 249 253 259 264 265 266 271 275 275 276 276 276 276 276 275 278 282 284 286 290 293 294 294 292
232 226 234 234 241 244 242 244 238 256 251 245 247 247 251 252 249 241 239 249 255 258 261 264 268 271 274 274 274 275 275 275 276 276 279 282 284 285 289 292 291 292 291
235 224 223 228 231 236 241 249 249 247 253 239 256 257 257 259 252 244 259 251 255 258 261 264 267 270 273 273 274 273 277 274 275 276 280 284 285 286 289 290 291 291 291
231 228 224 220 219 225 245 251 242 231 244 258 262 244 260 247 250 253 265 258 261 256 260 263 266 270 274 273 275 275 277 276 277 278 282 283 285 287 289 290 290 291 291
234 225 223 223 222 220 226 232 231 244 239 244 254 258 255 246 252 256 255 264 255 252 259 265 268 271 272 271 272 275 276 276 278 280 281 282 285 288 289 290 290 290 291
239 240 230 224 223 224 222 229 240 240 237 235 248 252 244 245 251 256 260 257 250 256 260 263 268 270 269 269 271 272 274 275 278 280 281 284 286 287 289 290 291 290 289
239 238 239 234 228 226 221 227 235 240 240 239 242 248 250 248 254 259 262 261 257 253 259 265 270 271 272 271 272 273 275 278 279 280 282 284 285 288 289 289 289 288 287
238 239 236 237 237 239 238 239 238 238 242 240 238 237 240 254 237 261 254 257 259 253 256 266 271 272 273 273 275 277 281 282 282 282 283 284 286 287 287 287 287 285 285
239 240 242 238 239 242 245 253 248 243 245 231 245 245 234 236 242 246 244 252 253 270 274 273 272 271 272 274 277 280 281 283 284 285 287 289 289 286 284 285 284 283 284
241 237 237 241 243 243 243 247 250 252 256 253 258 254 254 244 253 252 265 276 278 279 275 274 271 272 273 277 278 281 282 283 282 284 286 286 284 283 283 283 283 285 286
242 240 237 237 239 243 246 247 249 252 255 256 258 260 263 263 266 269 267 265 269 269 265 270 272 274 276 275 280 283 282 283 285 285 283 282 283 282 282 284 286 286 287
235 237 238 239 241 243 244 246 248 250 253 256 257 258 261 264 265 269 269 267 267 268 271 273 275 274 275 280 281 282 284 283 281 280 281 281 280 282 284 287 287 288 289
241 242 242 241 242 243 245 247 249 251 253 256 258 259 259 260 262 263 265 267 268 270 273 274 276 279 280 281 281 281 279 280 279 279 279 280 281 284 287 287 289 291 293
248 247 246 246 246 247 247 248 249 249 250 251 254 257 259 261 262 264 267 269 270 271 271 272 274 276 277 278 277 275 275 275 277 278 279 281 284 286 288 290 293 296 297
250 250 253 254 253 252 253 254 255 257 257 258 259 259 260 260 261 263 265 266 267 270 273 276 278 276 273 272 272 271 272 276 279 279 280 283 285 288 289 291 295 296 298
255 259 256 257 257 258 260 261 261 260 260 261 262 263 263 265 266 266 266 267 267 268 269 270 270 270 270 270 270 270 271 271 274 277 280 284 286 287 288 292 295 296 296
265 268 268 268 267 266 266 266 266 266 265 265 265 264 264 264 264 263 263 265 266 267 267 267 266 266 267 267 268 271 272 270 272 276 278 282 284 284 288 292 293 294 295
267 268 269 269 267 265 264 264 264 264 264 263 262 261 260 260 259 258 258 260 261 263 263 264 264 265 267 267 268 269 272 274 275 276 279 282 283 286 289 291 292 292 292
263 263 263 262 263 263 263 263 263 262 262 261 261 262 262 261 261 262 263 264 265 266 267 267 268 268 268 268 269 270 272 275 277 279 281 282 284 286 288 289 289 289 289
265 265 265 264 264 264 264 264 264 264 264 265 267 267 266 265 264 264 265 265 266 266 266 266 267 268 269 270 271 273 274 276 279 280 281 283 284 285 286 288 287 287 288
264 265 265 266 267 267 268 268 269 270 270 269 268 268 269 269 270 271 272 273 274 274 275 275 275 275 275 275 274 274 275 276 277 279 281 283 284 284 284 285 285 285 285
270 270 268 267 267 265 264 265 267 267 268 268 269 270 270 270 270 271 271 271 271 273 275 275 275 277 278 278 279 280 280 279 279 281 282 281 282 282 281 280 281 282 285
272 272 272 272 272 272 272 271 270 270 270 269 269 270 271 271 270 270 270 271 272 274 276 276 278 280 281 282 282 282 281 280 279 279 278 278 278 279 279 277 280 283 286
276 275 275 275 275 275 275 275 276 276 276 276 275 275 274 274 275 275 276 276 276 277 277 277 277 278 278 278 279 280 280 280 280 279 277 276 275 275 275 277 279 281 285
280 281 280 280 280 280 279 279 278 278 278 278 277 277 277 277 276 275 274 274 275 274 275 276 276 276 277 277 277 277 276 274 272 272 272 271 271 273 274 277 280 285 290